Regional Weather Roundup
Issued by NWS Columbia, SC

Home | Current Version | Previous Version | Text Only | Print | Product List | Glossary On
Versions: 1 2 3 4 5 6 7 8 9 10 11 12 13 14 15 16 17 18 19 20 21 22 23 24 25 26 27 28 29 30 31 32 33 34 35 36 37 38 39 40 41 42 43 44 45 46 47 48 49 50
000
ASUS42 KCAE 292110
RWRCAE
REGIONAL WEATHER ROUNDUP
NATIONAL WEATHER SERVICE COLUMBIA SC
500 PM EDT SUN MAR 29 2015

NOTE: "FAIR" INDICATES FEW OR NO CLOUDS BELOW 12,000 FEET WITH NO
SIGNIFICANT WEATHER AND/OR OBSTRUCTIONS TO VISIBILITY.

NOT ALL STATIONS ARE QUALITY CONTROLLED BY THE NATIONAL
WEATHER SERVICE. USE DATA WITH CAUTION...ESPECIALLY
DEWPOINT OBSERVATIONS.

SCZ001>056-GAZ040-063>065-077-292200-
...UPSTATE SOUTH CAROLINA...

CITY           SKY/WX    TMP DP  RH WIND       PRES   REMARKS
ANDERSON       SUNNY     57  14  18 S10       30.28F
LIBERTY        CLEAR     57  15  19 SW5       30.26F
SPARTANBURG    SUNNY     55   9  15 SW5       30.27F
CLEMSON        SUNNY     57  16  20 VRB5      30.29F
GREENVILLE     SUNNY     57  11  16 S7        30.27F
GREENWOOD      SUNNY     56  12  17 VRB3      30.30F
GREER          SUNNY     56  13  18 S12       30.26F
ROCK HILL      SUNNY     53  11  18 VRB7      30.30F
CHESTER        CLEAR     55   3  12 SW7       30.30F
LAURENS        CLEAR     55  27  33 SW8       30.29F


...CENTRAL SOUTH CAROLINA...

CITY           SKY/WX    TMP DP  RH WIND       PRES   REMARKS
COLUMBIA APT   MOSUNNY   57   9  14 CALM      30.32F
COLUMBIA OWENS SUNNY     56  11  16 W5        30.34F
DARLINGTON     SUNNY     54  12  19 NE3       30.35F
FLORENCE       SUNNY     54   9  16 VRB5      30.34F
MCENTIRE ANGB  SUNNY     55   9  16 VRB5      30.32F
ORANGEBURG     SUNNY     57  14  18 CALM      30.33F
SUMTER SHAW    SUNNY     55   8  15 VRB3      30.31F
NEWBERRY       CLEAR    N/A N/A N/A SW10      30.34F
AIKEN          FAIR      55   9  15 S5        30.35F
BARNWELL       FAIR      57  14  18 NE3       30.33F
MANNING        HVY RAIN  54   5  14 CALM      30.35F
CAMDEN         FAIR      54   9  16 VRB5      30.33F
LANCASTER      CLEAR     55  10  16 SW10      30.31F
WINNSBORO      CLEAR     54  14  20 CALM      30.32F


...EASTERN AND COASTAL SOUTH CAROLINA...

CITY           SKY/WX    TMP DP  RH WIND       PRES   REMARKS
MYRTLE BEACH   SUNNY     52  25  35 S10       30.38F
N MYRTLE BCH   SUNNY     50  27  40 S12       30.36F
CONWAY         FAIR      54  18  24 CALM      30.35F
MARION         FAIR      54  12  19 NW5       30.35F
HARTSVILLE     FAIR      54   5  14 SW3       30.33F
FLORENCE       SUNNY     54   9  16 VRB5      30.34F
DARLINGTON     SUNNY     54  12  19 NE3       30.35F
CHARLESTON APT MOSUNNY   57  13  17 E5        30.35S
MOUNT PLEASANT FAIR      52  32  46 SE3       30.36R
WALTERBORO     CLEAR     55  14  19 CALM      30.35F
BEAUFORT       SUNNY     58  20  22 SE6       30.35F


...EASTERN GEORGIA...

CITY           SKY/WX    TMP DP  RH WIND       PRES   REMARKS
AUGUSTA BUSH F SUNNY     59  12  15 CALM      30.32F
AUGUSTA DANIEL SUNNY     57   9  14 CALM      30.32F
THOMSON        SUNNY     60  20  21 CALM      30.34F
WASHINGTON     FAIR      61  27  27 SW5       30.29F
CLAXTON        FAIR      61  27  27 NE6       30.32F
SYLVANIA       CLEAR     59  23  24 CALM      30.33F
STATESBORO     SUNNY     59  22  23 SE3       30.32F
SAVANNAH       SUNNY     59  21  23 E8        30.33F


...SOUTHERN NORTH CAROLINA...

CITY           SKY/WX    TMP DP  RH WIND       PRES   REMARKS
CHARLOTTE      MOSUNNY   54  11  18 SW7       30.30F
MONROE         SUNNY     54  12  18 SW14      30.29F
WADESBORO      CLEAR     54   2  12 SW5       30.32F
ROCKINGHAM       N/A     52   8  16 SW3       30.32F
RUTHERFORDTON  SUNNY     54  12  18 S13G18    30.27F
ASHEVILLE      SUNNY     55  15  20 S8        30.22F

$$



USA.gov is the U.S. government's official web portal to all federal, state and local government web resources and services.